Regional Weather Roundup
Issued by NWS

Home | Current Version | Previous Version | Text Only | Print | Product List | Glossary Off
Versions: 1 2 3 4 5 6 7 8 9 10 11 12 13 14 15 16 17 18 19 20 21 22 23 24 25 26 27 28 29 30 31 32 33 34 35 36 37 38 39 40 41 42 43 44 45 46 47 48 49 50

000
ASUS43 KTOP 251908
RWRKS

WEATHER ROUNDUP FOR KANSAS
NATIONAL WEATHER SERVICE GOODLAND KS
200 PM CDT SUN SEP 25 2016

NOTE:  "FAIR" INDICATES FEW OR NO CLOUDS BELOW 12,000 FEET WITH NO
SIGNIFICANT WEATHER AND/OR OBSTRUCTIONS TO VISIBILITY.

KSZ001>006-013>018-027>032-041>047-252000-
NORTHWEST KANSAS

CITY           SKY/WX    TMP DP  RH WIND       PRES   REMARKS
GOODLAND       SUNNY     70  35  27 NW18G28   30.34F
HAYS           SUNNY     73  43  33 N16       30.26F
HILL CITY      SUNNY     73  41  31 N15G22    30.28F
RUSSELL        LGT RAIN  72  45  37 N18G28    30.23F
$$

KSZ061>065-074>080-084>089-252000-
SOUTHWEST KANSAS

CITY           SKY/WX    TMP DP  RH WIND       PRES   REMARKS
DODGE CITY     LGT RAIN  74  42  31 N17G29    30.27F
ELKHART          N/A     70  36  28 N16         N/A
GARDEN CITY    SUNNY     73  36  25 N18G32    30.29F
GREAT BEND     MOSUNNY   70  46  43 N16       30.24F
LIBERAL        SUNNY     75  41  29 NE18G31   30.30F
PRATT          MOSUNNY   67  45  43 N20G26    30.24F
$$

KSZ066>073-081>083-090>101-252000-
SOUTHEAST KANSAS

CITY           SKY/WX    TMP DP  RH WIND       PRES   REMARKS
CHANUTE        LGT RAIN  61  59  93 N12       30.15S
COFFEYVILLE    LGT RAIN  65  64  97 NW17      30.13S
HUTCHINSON     CLOUDY    70  49  47 N13G22    30.21F
MEDICINE LODGE   N/A     68  47  46 N20G25      N/A
NEWTON         CLOUDY   N/A N/A N/A N12       30.22R
PARSONS        LGT RAIN  61  60  97 NW12      30.16R FOG
WICHITA INTL   PTSUNNY   66  50  56 N18       30.20F
WICHITA JABRA  CLOUDY    65  53  65 N17       30.19F
WICHITA MCCONL CLOUDY    66  52  60 N16       30.20F
WINFIELD       CLOUDY    64  55  72 N15       30.19F
$$

KSZ007>012-019>026-033>040-048>060-102>105-252000-
NORTHEAST KANSAS

CITY           SKY/WX    TMP DP  RH WIND       PRES   REMARKS
CONCORDIA      MOSUNNY   72  48  42 NW15      30.20F
EMPORIA        CLOUDY    65  54  67 N10       30.18F
LAWRENCE       CLOUDY    63  57  81 NW8       30.15F
MANHATTAN      MOSUNNY   70  51  51 N10       30.19F
MARYSVILLE     SUNNY     72  52  49 NW10      30.17F
OLATHE IND     CLOUDY    61  57  87 NW9       30.14F
OLATHE EXE     CLOUDY    60  54  80 N9        30.13F
SALINA         PTSUNNY   72  52  49 N10       30.22S
TOPEKA BILLARD CLOUDY    66  55  67 NW5       30.17F
TOPEKA FORBES  CLOUDY    66  55  67 NW10      30.17F
$$




USA.gov is the U.S. government's official web portal to all federal, state and local government web resources and services.